This is the latest recevied weather packets stored in our database for station/object KB3UQE. If no packets are shown the sender has not sent any weather packets the latest 10 day(s).
| Time | Temp. | Humidity | Pressure | Rain* | Wind** | Luminosity | Snow |
|---|---|---|---|---|---|---|---|
| 1777318151 | 25° C | 46% | 1021.4 hPa | - | - | - | - |
| 1777316892 | 24.44° C | 47% | 1021.6 hPa | - | - | - | - |
| 1777315642 | 24.44° C | 47% | 1021.6 hPa | - | - | - | - |
| 1777315614 | 24.44° C | 47% | 1021.6 hPa | - | - | - | - |
| 1777314202 | 24.44° C | 47% | 1021.8 hPa | - | - | - | - |
| 1777314173 | 24.44° C | 47% | 1021.8 hPa | - | - | - | - |
| 1777312761 | 24.44° C | 48% | 1021.9 hPa | - | - | - | - |
| 1777312733 | 24.44° C | 48% | 1021.9 hPa | - | - | - | - |
| 1777311501 | 25° C | 47% | 1021.9 hPa | - | - | - | - |
| 1777311473 | 25° C | 47% | 1021.9 hPa | - | - | - | - |
| 1777310241 | 24.44° C | 48% | 1022.3 hPa | - | - | - | - |
| 1777310213 | 24.44° C | 48% | 1022.3 hPa | - | - | - | - |
| 1777308981 | 24.44° C | 48% | 1022.5 hPa | - | - | - | - |
| 1777308952 | 24.44° C | 48% | 1022.5 hPa | - | - | - | - |
| 1777307720 | 23.89° C | 49% | 1022.6 hPa | - | - | - | - |
| 1777307692 | 23.89° C | 49% | 1022.6 hPa | - | - | - | - |
| 1777306460 | 23.89° C | 49% | 1022.6 hPa | - | - | - | - |
| 1777306432 | 23.89° C | 49% | 1022.6 hPa | - | - | - | - |
| 1777305200 | 25.56° C | 47% | 1022.9 hPa | - | - | - | - |
| 1777305172 | 25.56° C | 47% | 1022.9 hPa | - | - | - | - |
| 1777303940 | 23.89° C | 49% | 1023 hPa | - | - | - | - |
| 1777303912 | 23.89° C | 49% | 1023 hPa | - | - | - | - |
| 1777302680 | 21.67° C | 50% | 1023.3 hPa | - | - | - | - |
| 1777302652 | 21.67° C | 50% | 1023.3 hPa | - | - | - | - |
| 1777301599 | 20° C | 52% | 1023.4 hPa | - | - | - | - |
* Rain since midnight (hover to see other rain measurements)
** Current wind speed in m/s (hover to see current wind gust speed)